Location: Ausserleithen
(49.8974°N, 11.3909°E)
Time: 09:12:36
(UTC+00:00)

Daily predictions for brighter satellites

Satellite Brightness Start Highest point End
(mag) Time Altitude Azimuth Time Altitude Azimuth Time Altitude Azimuth
Cosmos 1833 Rocket 3.5 19:47:07 10° NW 19:52:29 48° WSW 19:57:51 10° S
Cosmos 2297 4.3 19:49:46 10° S 19:54:56 38° ESE 20:00:10 10° NE
Cosmos 1943 Rocket 3.6 19:52:00 10° SE 19:55:39 18° E 19:59:19 10° ENE
STARLINK-1231 4.2 19:52:25 10° W 19:56:31 62° NNW 20:00:39 10° ENE
STARLINK-1123 3.7 19:53:13 10° WNW 19:57:23 89° NNE 20:01:33 10° ESE
STARLINK-1246 3.6 19:54:37 10° WSW 19:58:44 72° SSE 20:02:53 10° ENE
Cosmos 2082 Rocket 2.5 19:53:34 10° NNW 19:59:15 67° WSW 20:04:53 10° SSE
IGS 5A 3.7 19:56:15 10° SSE 20:00:20 57° ENE 20:04:26 10° N
Cosmos 1420 Rocket 4.2 19:56:05 10° SSW 20:01:17 77° WNW 20:06:30 10° NNE
STARLINK-1232 4.3 19:57:25 10° W 20:01:32 60° N 20:05:39 10° ENE
Cosmos 1452 Rocket 3.5 19:56:16 10° SSW 20:01:32 79° ESE 20:06:51 10° NNE
Cosmos 332 Rocket 3.9 19:56:59 10° S 20:01:50 63° ESE 20:06:41 10° NNE
BREEZE-M DEB 4.0 20:00:10 10° S 20:01:53 16° SE 20:04:28 10° E
Intercosmos 24 3.8 19:58:27 10° NNW 20:02:03 81° W 20:05:49 10° S
STARLINK-1097 3.6 19:58:14 10° WNW 20:02:24 87° SSW 20:06:33 10° ESE
Landsat 7 4.0 19:58:38 10° SSE 20:03:20 65° ENE 20:08:04 10° N
STARLINK-1224 3.6 19:59:34 10° WSW 20:03:42 76° SSE 20:07:51 10° ENE
STARLINK-1208 4.3 20:02:24 10° W 20:06:30 59° N 20:10:37 10° ENE
STARLINK-1099 3.6 20:03:12 10° WNW 20:07:22 83° SSW 20:11:31 10° ESE
Cosmos 1461 3.1 20:04:06 10° SSW 20:08:08 52° ESE 20:12:23 10° NE
STARLINK-1225 3.6 20:04:32 10° WSW 20:08:42 80° SSE 20:12:51 10° ENE
Okean 3 4.1 20:06:03 10° SSW 20:10:18 61° WNW 20:14:36 10° N
SAR-Lupe-2 3.9 20:07:03 10° NNE 20:10:33 46° E 20:14:01 10° S
STARLINK-1271 4.3 20:07:26 10° W 20:11:32 58° N 20:15:38 10° ENE
Cosmos 2369 Rocket 3.7 20:07:53 10° SE 20:11:33 18° E 20:15:13 10° ENE
STARLINK-1104 3.6 20:08:10 10° WNW 20:12:19 79° SSW 20:16:29 10° ESE
STARLINK-1212 3.9 20:10:37 10° WNW 20:13:39 45° N 20:16:40 10° E
STARLINK-1230 3.6 20:09:31 10° WSW 20:13:40 84° SSE 20:17:49 10° ENE
STARLINK-1105 3.9 20:11:06 10° WNW 20:14:07 45° N 20:17:07 10° E
NOSS 2-2 (C) 4.1 20:11:22 10° S 20:14:26 27° ESE 20:17:46 10° ENE
STARLINK-1247 3.9 20:11:59 10° WNW 20:15:00 45° N 20:18:02 10° E
STARLINK-1227 3.9 20:12:29 10° WNW 20:15:29 45° N 20:18:30 10° E
STARLINK-1226 3.9 20:13:20 10° WNW 20:16:21 45° N 20:19:23 10° E
STARLINK-1154 4.3 20:12:26 10° W 20:16:31 57° N 20:20:38 10° ENE
SL-4 R/B 3.9 20:15:24 10° W 20:16:54 13° WSW 20:18:20 10° SW
STARLINK-1215 3.9 20:14:14 10° WNW 20:17:16 46° N 20:20:18 10° E
STARLINK-1144 3.6 20:13:10 10° WNW 20:17:19 75° SSW 20:21:27 10° ESE
Cosmos 2221 Rocket 4.4 20:13:46 10° SSW 20:18:13 57° WNW 20:22:44 10° N
STARLINK-1243 3.6 20:14:30 10° WSW 20:18:39 88° SSE 20:22:49 10° ENE
ATLAS 2AS CENTAUR R/B 4.4 20:13:44 10° SE 20:18:39 18° ESE 20:23:35 10° ENE
STARLINK-1217 3.9 20:16:03 10° WNW 20:19:04 46° N 20:22:07 10° E
NOSS 3-2 (A) 4.2 20:12:06 10° NW 20:19:23 70° NE 20:27:41 10° SE
SPOT 5 3.5 20:14:23 10° SE 20:19:28 52° ENE 20:24:41 10° N
STARLINK-1229 3.9 20:16:58 10° WNW 20:20:00 46° N 20:23:02 10° E
STARLINK-1270 3.9 20:17:52 10° WNW 20:20:54 46° N 20:23:56 10° E
STARLINK-1197 4.4 20:17:24 10° W 20:21:30 56° N 20:25:36 10° ENE
NOSS 8 (F) 4.0 20:18:29 10° SW 20:21:40 82° SE 20:24:44 10° NE
Meteor 1-13 Rocket 4.4 20:16:14 10° SSW 20:21:52 81° WNW 20:27:41 10° N
STARLINK-1103 3.7 20:18:08 10° WNW 20:22:16 71° SSW 20:26:13 11° SE
STARLINK-1189 3.9 20:19:39 10° WNW 20:22:42 46° N 20:25:44 10° E
STARLINK-1188 3.9 20:20:34 10° WNW 20:23:36 46° N 20:26:39 10° E
STARLINK-1236 3.6 20:19:28 10° WSW 20:23:37 88° NNW 20:27:47 10° ENE
ERS-1 Rocket 3.1 20:19:41 10° SSE 20:24:39 64° ENE 20:29:39 10° N
STARLINK-1187 3.8 20:21:39 10° WNW 20:24:41 47° N 20:27:42 10° E
STARLINK-1191 3.9 20:23:01 10° WNW 20:26:02 47° N 20:29:03 10° E
STARLINK-1198 4.4 20:22:24 10° W 20:26:29 55° N 20:30:35 10° ENE
STARLINK-1221 3.8 20:23:59 10° WNW 20:27:00 47° N 20:30:01 10° E
STARLINK-1101 3.7 20:23:07 10° WNW 20:27:15 67° SSW 20:31:00 12° SE
STARLINK-1222 3.8 20:24:49 10° WNW 20:27:51 47° N 20:30:53 10° E
STARLINK-1214 3.8 20:25:43 10° WNW 20:28:45 47° N 20:31:46 10° E
Cosmos 1066 Rocket 4.1 20:24:11 10° S 20:29:30 66° E 20:34:49 10° NNE
USA 245 3.1 20:28:11 10° S 20:31:04 49° WSW 20:33:31 10° NNW
USA 238 DEB 4.0 20:24:08 10° NW 20:31:20 76° NE 20:38:25 12° SE
USA 238 4.0 20:24:15 10° NW 20:31:26 76° NE 20:38:32 12° SE
STARLINK-1199 4.4 20:27:25 10° W 20:31:30 55° N 20:35:36 10° ENE
STARLINK-1102 3.7 20:28:07 10° WNW 20:32:13 63° SSW 20:35:48 13° SE
STARLINK-1228 3.8 20:29:47 10° WNW 20:33:15 56° NNE 20:36:42 10° E
Okean 1 Rocket 3.1 20:29:05 10° N 20:33:35 89° E 20:37:54 11° S
STARLINK-1269 3.7 20:29:26 10° WSW 20:33:36 81° NNW 20:37:45 10° ENE
Cosmos 1805 3.5 20:29:58 10° N 20:33:52 56° ENE 20:37:07 14° SSE
Cosmos 2278 Rocket 3.6 20:29:17 10° WSW 20:34:41 43° NW 20:40:07 10° NNE
TSX-5 4.2 20:29:14 10° SSW 20:34:45 86° ESE 20:39:00 10° NNE
Resurs 01 Rocket 3.4 20:30:55 10° SSW 20:34:47 29° W 20:38:41 10° NW
Nadezhda 4 Rocket 4.0 20:29:52 10° S 20:35:58 71° E 20:42:04 10° NNE
STARLINK-1210 4.4 20:32:24 10° W 20:36:30 55° N 20:40:35 10° ENE
STARLINK-1235 3.7 20:33:25 10° WNW 20:36:37 54° NNE 20:39:48 10° E
STARLINK-1111 3.8 20:33:05 10° WNW 20:37:11 59° SSW 20:40:34 14° SE
STARLINK-1200 3.8 20:34:25 10° WSW 20:38:34 78° NNW 20:42:43 10° ENE
Cosmos 1455 Rocket 4.1 20:35:10 10° N 20:39:08 33° ENE 20:42:18 14° SE
STARLINK-1219 4.4 20:37:24 10° W 20:41:29 54° N 20:45:34 10° ENE
STARLINK-1073 3.9 20:38:05 10° WNW 20:42:10 56° SSW 20:45:22 16° SE
SL-8 R/B 4.0 20:37:44 10° W 20:42:22 49° SSW 20:46:16 14° SE
STARLINK-1192 3.8 20:39:25 10° WSW 20:43:34 75° NNW 20:47:43 10° ENE
ATLAS CENTAUR R/B 3.6 20:45:03 10° NNW 20:45:48 11° N 20:46:34 10° NNE
STARLINK-1211 4.4 20:42:25 10° W 20:46:30 54° N 20:50:35 10° ENE
ATLAS 3B CENTAUR R/B 4.4 20:39:31 10° SW 20:47:02 18° SSW 20:50:57 13° SSE
STARLINK-1121 3.9 20:43:04 10° WNW 20:47:07 52° SSW 20:50:08 17° SE
SL-4 R/B 3.5 20:44:27 10° S 20:48:07 22° SE 20:51:51 10° E
Terra 2.0 20:44:22 15° SSE 20:48:19 65° ENE 20:53:03 10° N
Cosmos 1110 Rocket 3.9 20:43:17 10° SSW 20:48:28 80° ESE 20:53:39 10° NNE
STARLINK-1244 3.9 20:44:24 10° WSW 20:48:32 73° NNW 20:52:41 10° ENE
Spot 2 Rocket 4.4 20:44:52 10° S 20:49:41 45° W 20:54:32 10° NNW
SPOT 1/Viking Rocket 3.9 20:45:23 10° S 20:50:29 61° WSW 20:55:37 10° NNW
Abrixas rocket 3.4 20:48:17 10° W 20:50:43 23° SSW 20:51:50 18° S
Cosmos 1842 4.1 20:48:51 17° SSE 20:51:18 33° E 20:54:50 10° NNE
STARLINK-1245 4.4 20:47:24 10° WNW 20:51:29 54° N 20:55:34 10° E
CARTOSAT-1 3.6 20:47:49 13° S 20:51:35 81° WSW 20:55:57 10° NNW
STARLINK-1106 4.0 20:48:05 10° WNW 20:52:06 49° SSW 20:54:56 18° SE
NOSS 8 (H) 4.2 20:49:43 10° SW 20:52:50 81° NW 20:55:56 10° NE
ERBS 4.4 20:49:53 10° W 20:52:51 30° NNW 20:55:51 10° NE
STARLINK-1138 3.9 20:49:24 10° W 20:53:32 70° NNW 20:57:41 10° ENE
STARLINK-1234 3.4 20:51:11 10° WNW 20:54:27 63° NNE 20:57:43 10° E
STARLINK-1233 4.4 20:52:22 10° WNW 20:56:27 54° N 21:00:32 10° E
STARLINK-1112 4.1 20:53:03 10° WNW 20:57:02 46° SW 20:59:42 19° SSE
STARLINK-1143 4.0 20:54:22 10° W 20:58:30 68° NNW 21:02:38 10° ENE
STARLINK-1209 3.3 20:57:10 10° WNW 21:00:27 68° NNE 21:03:27 12° E
STARLINK-1204 4.4 20:57:23 10° WNW 21:01:28 55° N 21:05:33 10° E
STARLINK-1128 4.2 20:58:03 10° WNW 21:01:59 43° SW 21:04:28 20° SSE
STARLINK-1241 4.0 20:59:24 10° W 21:03:32 66° NNW 21:07:40 10° ENE
SWAS 4.5 20:59:27 10° NNW 21:03:47 84° WSW 21:06:45 20° SSE
Cosmos 1331 Rocket 4.0 21:00:06 10° SSW 21:05:16 84° WNW 21:10:30 10° NNE
Aureole 2 Rocket 3.7 21:03:13 10° SW 21:06:05 35° WNW 21:08:50 10° N
STARLINK-1238 4.3 21:02:24 10° WNW 21:06:29 55° N 21:10:34 10° E
STARLINK-1113 4.3 21:03:03 10° WNW 21:06:57 40° SW 21:09:15 21° SSE
Cosmos 1733 3.1 21:03:09 10° N 21:07:00 88° E 21:09:32 20° S
STARLINK-1239 4.1 21:04:23 10° W 21:08:31 64° NNW 21:12:38 10° ENE
STARLINK-1201 4.3 21:07:23 10° WNW 21:11:28 55° N 21:15:34 10° E
COSMOS 2455 4.3 21:09:45 16° SE 21:11:54 19° ESE 21:15:56 10° ENE
STARLINK-1119 4.4 21:08:05 10° WNW 21:11:55 37° SW 21:14:04 21° SSE
Cosmos 1378 3.5 21:09:41 11° SSW 21:13:15 64° WNW 21:16:57 10° N
STARLINK-1240 4.1 21:09:22 10° W 21:13:29 62° NNW 21:17:36 10° ENE
Cosmos 1486 Rocket 4.1 21:09:11 10° NNW 21:14:31 74° ENE 21:18:13 20° SSE
USA 215 3.8 21:08:56 10° E 21:15:21 59° NNE 21:21:45 10° WNW
Cosmos 1302 Rocket 4.0 21:10:14 11° S 21:15:22 67° ESE 21:20:38 10° NNE
Cosmos 1271 Rocket 3.9 21:14:22 21° SE 21:16:01 29° E 21:19:26 10° NNE
Cosmos 1544 Rocket 3.8 21:11:44 10° N 21:16:01 54° ENE 21:18:39 22° SSE
STARLINK-1206 4.3 21:12:24 10° WNW 21:16:29 56° N 21:20:35 10° E
STARLINK-1114 4.5 21:13:04 10° WNW 21:16:51 35° SW 21:18:49 22° SSE
Cosmos 1242 Rocket 3.2 21:15:26 24° SSE 21:17:10 39° E 21:20:37 10° NNE
MTI 3.7 21:14:12 10° NNE 21:17:21 64° ESE 21:18:58 25° S
STARLINK-1203 4.2 21:14:12 10° W 21:18:22 61° N 21:22:33 10° ENE
STARLINK-1216 4.2 21:14:21 10° W 21:18:28 61° N 21:22:35 10° ENE
Lacrosse 5 4.3 21:17:57 10° WSW 21:18:42 10° WSW 21:19:27 10° SW
STARLINK-60 3.8 21:20:10 28° SE 21:20:10 28° SE 21:22:48 10° E
STARLINK-1205 4.3 21:17:22 10° WNW 21:21:28 57° N 21:25:34 10° E
Cosmos 1092 Rocket 4.0 21:15:30 11° S 21:21:30 86° W 21:27:42 10° N
NOSS 2-2 (D) 3.4 21:19:06 10° SW 21:22:41 74° NW 21:26:51 10° NE
STARLINK-1237 4.2 21:19:21 10° W 21:23:28 59° N 21:27:35 10° ENE
CENTAUR R/B 3.2 21:15:58 10° NW 21:23:55 87° NE 21:31:08 17° SE
Cosmos 1707 3.8 21:24:35 22° SE 21:26:07 30° E 21:29:32 10° NNE
STARLINK-1218 4.2 21:22:23 10° WNW 21:26:29 58° N 21:30:35 10° E
ATLAS 3B R/B 3.3 21:20:31 10° NW 21:27:09 55° NE 21:33:57 10° ESE
SL-27 R/B 2.6 21:24:06 10° NNW 21:27:41 68° WSW 21:29:28 27° S
STARLINK-1202 4.3 21:24:22 10° W 21:28:28 58° N 21:32:34 10° ENE
NOSS 3-2 (C) 4.1 21:21:42 10° NW 21:29:09 83° SW 21:35:37 19° SE
Cosmos 1766 4.3 21:26:09 10° NNW 21:29:54 41° W 21:32:47 16° SSW
Cosmos 1726 3.6 21:27:53 10° NNE 21:31:05 27° ENE 21:32:50 19° ESE
STARLINK-1254 4.2 21:27:21 10° WNW 21:31:28 59° N 21:35:35 10° E
ALOS 2 4.2 21:30:24 14° ESE 21:33:13 25° ENE 21:36:48 10° N
Cosmos 1867 3.8 21:28:38 10° NW 21:34:07 69° NE 21:38:07 19° SE
COSMOS 2487 3.9 21:32:11 10° N 21:35:16 29° ENE 21:37:03 18° ESE
STARLINK-1231 4.1 21:32:20 10° WNW 21:36:27 60° N 21:40:34 10° E
STARLINK-1246 4.3 21:34:23 10° W 21:38:28 56° N 21:42:34 10° ENE
Cosmos 1943 Rocket 2.2 21:33:06 10° SSW 21:38:40 83° WNW 21:44:19 10° NNE
Cosmos 1992 Rocket 4.4 21:36:08 23° SSE 21:38:58 44° ESE 21:43:54 10° NE
NOSS 2-2 (E) 4.4 21:36:34 10° WSW 21:40:06 46° NW 21:44:21 10° NE
NOSS 3-4 (A) 3.9 21:36:32 20° S 21:40:13 40° ESE 21:46:02 10° NE
NOSS 3-4 (C) 3.9 21:36:40 20° S 21:40:19 40° ESE 21:46:08 10° NE
STARLINK-1232 4.1 21:37:20 10° WNW 21:41:28 61° N 21:45:35 10° E
SeaSat 1 3.2 21:37:56 10° NE 21:42:28 35° ESE 21:44:34 25° SSE
EO 1 Del DPAF 3.7 21:39:31 10° NNE 21:43:08 42° E 21:44:29 30° SSE
STARLINK-1224 4.3 21:39:22 10° W 21:43:27 56° N 21:47:33 10° ENE
STARLINK-1208 4.0 21:42:18 10° WNW 21:46:26 63° NNE 21:50:33 10° E
Cosmos 1975 Rocket 3.7 21:44:36 14° SSW 21:48:17 54° WNW 21:52:38 10° N
STARLINK-1225 4.4 21:44:23 10° W 21:48:28 55° N 21:52:34 10° ENE
STARLINK-1212 2.7 21:46:31 10° WNW 21:49:38 82° SSW 21:50:47 36° ESE
STARLINK-1105 2.7 21:46:59 10° WNW 21:50:06 82° SSW 21:51:13 36° ESE
Meteor 2-10 4.1 21:45:52 10° N 21:50:54 63° ENE 21:53:43 26° SSE
STARLINK-1247 2.7 21:47:52 10° WNW 21:51:00 81° SSW 21:52:06 36° ESE
STARLINK-1271 4.0 21:47:19 10° WNW 21:51:27 65° NNE 21:55:35 10° E
STARLINK-1227 2.7 21:48:21 10° WNW 21:51:28 80° SSW 21:52:32 37° ESE
Cosmos 292 Rocket 3.7 21:48:20 18° SSW 21:51:55 84° ESE 21:56:49 10° NNE
BREEZE-M DEB (TANK) 3.3 21:39:17 10° WSW 21:52:07 76° SSE 21:55:40 10° E
STARLINK-1226 2.7 21:49:13 10° WNW 21:52:21 79° SSW 21:53:24 38° ESE
BREEZE-M DEB (TANK) 2.8 21:48:59 10° W 21:52:48 80° S 21:56:46 10° ESE
STARLINK-1215 2.7 21:50:07 10° WNW 21:53:15 78° SSW 21:54:16 39° SE
STARLINK-1230 4.4 21:49:23 10° W 21:53:27 55° N 21:57:33 10° ENE
Cosmos 2227 Rocket 4.5 21:49:58 10° N 21:54:01 19° NE 21:58:03 10° E
RESURS DK-1 4.4 21:53:57 14° ESE 21:54:07 14° ESE 21:56:12 10° ENE
S3M 4.0 21:48:05 10° N 21:54:16 74° E 21:58:10 24° SSE
Cosmos 2369 Rocket 2.2 21:49:10 10° SSW 21:54:51 85° WNW 22:00:32 10° NNE
STARLINK-1217 2.7 21:51:55 10° WNW 21:55:03 76° SSW 21:56:00 40° SE
STARLINK-1229 2.7 21:52:50 10° WNW 21:55:58 75° SSW 21:56:54 41° SE
STARLINK-1154 3.9 21:52:18 10° WNW 21:56:26 67° NNE 22:00:35 10° E
STARLINK-1270 2.7 21:53:44 10° WNW 21:56:52 75° SSW 21:57:45 42° SE
Aureole 3 Rocket 4.4 21:51:49 10° NNW 21:57:55 75° W 22:03:53 20° S
STARLINK-1243 4.4 21:54:23 10° W 21:58:28 54° N 22:02:33 10° ENE
STARLINK-1189 2.7 21:55:32 10° WNW 21:58:39 73° SSW 21:59:29 44° SE
STARLINK-1188 2.7 21:56:26 10° WNW 21:59:34 72° SSW 22:00:22 45° SE
STARLINK-1187 2.8 21:57:33 10° WNW 22:00:38 64° SSW 22:01:14 49° SSE
ATLAS CENTAUR R/B 2.1 21:59:35 31° SSE 22:00:41 36° ESE 22:04:30 10° NE
Cosmos 1340 Rocket 3.2 21:56:45 10° N 22:00:45 55° ENE 22:02:31 30° SE
STARLINK-1197 3.9 21:57:16 10° WNW 22:01:25 69° NNE 22:05:33 10° E
STARLINK-1191 2.7 21:58:53 10° WNW 22:01:59 69° SSW 22:02:39 49° SE
Aureole 3 3.8 21:59:36 10° N 22:02:36 32° ENE 22:03:24 28° ESE
STARLINK-1221 2.7 21:59:50 10° WNW 22:02:56 68° SSW 22:03:34 49° SE
STARLINK-1236 4.4 21:59:22 10° W 22:03:27 54° N 22:07:32 10° ENE
STARLINK-1222 2.7 22:00:41 10° WNW 22:03:47 67° SSW 22:04:23 50° SSE
Thor Agena Rocket 3.6 21:58:38 10° NNE 22:03:58 77° ESE 22:07:12 24° S
STARLINK-1214 2.8 22:01:35 10° WNW 22:04:40 66° SSW 22:05:15 51° SSE
NOSS 7 (A) 4.4 22:03:59 37° SSW 22:05:02 74° SE 22:07:57 10° NE
Cosmos 1025 Rocket 2.9 22:02:57 29° S 22:05:04 83° E 22:09:25 10° NNE
Cosmos 1908 4.5 22:02:22 10° N 22:05:47 31° ENE 22:07:21 22° ESE
EXPRESS MD2 4.2 22:02:04 10° W 22:06:13 88° S 22:15:05 10° E
STARLINK-1198 3.8 22:02:14 10° WNW 22:06:24 71° NNE 22:10:32 10° E
Cosmos 1553 Rocket 4.1 22:01:28 10° NNW 22:07:44 70° W 22:11:43 23° S
ATLAS 2AS CENTAUR R/B 3.0 22:00:30 10° SSW 22:08:23 68° SE 22:16:15 10° NE
BREEZE M DEB (TANK) 1.5 22:05:27 10° W 22:08:23 80° S 22:08:33 71° ESE
Cosmos 1656 Rocket 3.7 22:04:50 22° SSW 22:08:29 68° ESE 22:14:01 10° NNE
Cosmos 1953 2.3 22:05:05 10° N 22:09:06 78° E 22:10:41 35° SSE
BREEZE-M DEB (TANK) 4.2 21:57:41 10° WNW 22:09:48 52° SW 22:11:56 29° SSE
Cosmos 1470 3.4 22:06:24 10° NNW 22:10:08 45° W 22:11:51 26° SSW
STARLINK-1228 3.3 22:07:05 10° WNW 22:10:30 51° SSW 22:11:08 44° S
STARLINK-1199 3.8 22:07:15 10° WNW 22:11:24 74° NNE 22:15:21 11° ESE
STARLINK-1235 3.1 22:09:47 10° WNW 22:12:56 49° SSW 22:13:12 48° SSW
APEX 4.3 22:06:47 11° SSW 22:13:04 84° WNW 22:18:18 10° NNE
STARLINK-1269 4.4 22:09:23 10° WNW 22:13:28 54° N 22:17:32 10° E
Cosmos 2292 Rocket 3.5 22:13:24 35° SE 22:14:16 43° E 22:17:20 10° NNE
Cosmos 968 Rocket 4.0 22:10:00 10° NNW 22:14:56 47° WSW 22:17:31 25° SSW
STARLINK-1210 3.7 22:12:13 10° WNW 22:16:23 77° NNE 22:20:06 13° ESE
STARLINK-1200 4.4 22:14:21 10° WNW 22:18:26 54° N 22:22:31 10° E
Cosmos 1655 Rocket 4.0 22:15:01 24° S 22:19:00 87° E 22:25:20 10° N
SL-4 R/B 1.3 22:20:18 47° NNE 22:20:18 47° NNE 22:22:06 10° N
STARLINK-1219 3.7 22:17:12 10° WNW 22:21:21 80° NNE 22:24:53 14° ESE
ATLAS 5 CENTAUR R/B 1.3 22:21:46 34° SSW 22:22:56 57° SE 22:25:09 10° ENE
STARLINK-1192 4.3 22:19:22 10° WNW 22:23:27 55° N 22:27:32 10° E
Cosmos 1758 4.3 22:19:48 10° NNW 22:23:36 39° W 22:25:25 25° SW
STARLINK-52 3.8 22:26:27 34° ESE 22:26:27 34° ESE 22:28:40 10° ENE
STARLINK-1211 3.6 22:22:12 10° WNW 22:26:22 83° NNE 22:29:40 16° ESE
Terra 3.9 22:23:14 10° SW 22:26:31 18° W 22:29:49 10° NW
Cosmos 2228 3.5 22:22:41 10° N 22:26:50 49° ENE 22:28:36 29° SE
SL-4 R/B 2.3 22:22:31 10° WSW 22:27:19 69° SSE 22:32:08 10° ENE
Cosmos 1726 Rocket 4.3 22:23:27 10° N 22:27:34 42° ENE 22:29:31 26° SE
Meteor 2-15 4.4 22:21:26 10° N 22:27:37 82° E 22:31:06 28° SSE
STARLINK-1244 4.3 22:24:21 10° WNW 22:28:26 55° N 22:32:31 10° E
STARLINK-1234 3.9 22:27:38 10° WNW 22:30:16 34° SW 22:30:16 34° SW
STARLINK-1245 3.6 22:27:10 10° WNW 22:31:20 86° NNE 22:34:26 17° ESE
In-Cosmos 22 4.0 22:30:05 29° S 22:32:50 80° E 22:38:08 10° NNE
STARLINK-1138 4.3 22:29:21 10° WNW 22:33:26 56° N 22:37:32 10° E
STARLINK-1233 3.5 22:32:07 10° WNW 22:36:18 90° SE 22:39:12 19° ESE
STARLINK-1209 4.2 22:33:51 10° W 22:36:13 29° WSW 22:36:13 29° WSW
Cosmos 2266 Rocket 3.9 22:33:43 27° S 22:37:17 87° E 22:43:21 10° N
STARLINK-1143 4.3 22:34:19 10° WNW 22:38:25 57° N 22:42:30 10° E
STARLINK-1204 3.5 22:37:07 10° WNW 22:41:16 86° SSW 22:43:59 21° ESE
SJ 16-02 3.6 22:39:45 10° N 22:43:04 20° NE 22:46:23 10° E
STARLINK-1241 4.2 22:39:21 10° WNW 22:43:27 57° N 22:47:33 10° E
STARLINK-1238 3.5 22:42:07 10° WNW 22:46:17 82° SSW 22:48:47 23° ESE
Meteor 2-15 Rocket 4.4 22:41:22 10° N 22:47:33 89° W 22:50:55 29° S
Cosmos 1536 Rocket 4.4 22:45:44 22° SW 22:48:09 43° WNW 22:52:21 10° N
STARLINK-1239 4.2 22:44:20 10° WNW 22:48:27 58° N 22:52:32 10° E
Helios 1B rocket 4.2 22:45:52 10° NE 22:48:57 20° E 22:50:09 18° ESE
Cosmos 1674 2.6 22:48:20 45° S 22:49:22 75° E 22:53:10 10° NNE
STARLINK-1201 3.5 22:47:05 10° WNW 22:51:15 78° SSW 22:53:33 25° ESE
Cosmos 1271 Rocket 4.5 22:49:29 15° WSW 22:51:59 27° WNW 22:55:23 10° N
STARLINK-1240 4.2 22:49:18 10° WNW 22:53:25 60° N 22:57:31 10° E
STARLINK-60 3.1 22:52:45 10° WSW 22:55:56 70° NNW 22:59:07 10° ENE
STARLINK-1206 3.5 22:52:05 10° WNW 22:56:14 74° SSW 22:58:21 28° SE
COSMOS 2455 2.8 22:52:50 21° SSW 22:57:02 89° SE 23:03:07 10° NE
Cosmos 2219 3.8 22:52:18 10° NNW 22:57:51 52° NE 23:02:18 16° SE
USA 215 3.2 22:52:57 16° SE 22:58:18 72° SW 23:04:52 10° WNW
STARLINK-1216 4.1 22:54:17 10° WNW 22:58:24 61° N 23:02:30 10° E
STARLINK-1203 4.1 22:54:21 10° WNW 22:58:32 62° NNE 23:02:42 10° E
STARLINK-1350 4.4 23:01:49 29° ESE 23:01:49 29° ESE 23:04:32 10° E
STARLINK-1205 3.5 22:57:04 10° WNW 23:01:11 70° SSW 23:03:07 30° SE
Cosmos 2297 Rocket 3.0 22:56:38 10° NNW 23:02:06 47° NE 23:07:00 13° SE
Helios 1A 2.9 23:01:35 39° S 23:03:07 85° WSW 23:07:20 10° NNW
STARLINK-1237 4.1 22:59:16 10° WNW 23:03:24 62° NNE 23:07:31 10° E
Lacrosse 4 Rocket 3.8 23:02:11 10° NNW 23:05:41 23° NE 23:09:05 10° E
STARLINK-1218 3.5 23:02:04 10° WNW 23:06:11 66° SSW 23:07:55 33° SE
Cosmos 1726 3.6 23:03:07 10° NNW 23:06:14 26° W 23:07:20 22° WSW
STARLINK-1368 4.2 23:08:27 34° SE 23:08:27 34° SE 23:11:30 10° ENE
Cosmos 1174 3.9 23:06:36 30° WSW 23:08:04 59° NW 23:11:57 10° NNE
STARLINK-1202 4.0 23:04:16 10° WNW 23:08:24 64° NNE 23:12:31 10° E
ALOS 2 3.2 23:07:47 31° SSW 23:09:21 43° W 23:13:33 10° NNW
Timation 2 Rocket 3.9 23:03:12 10° NNW 23:09:32 74° WSW 23:12:55 28° SSE
Cosmos 2058 Rocket 3.1 23:05:40 10° N 23:10:07 73° ENE 23:11:58 35° SSE
COSMOS 2487 4.0 23:07:24 10° NW 23:10:12 23° WSW 23:10:32 23° WSW
STARLINK-1254 3.6 23:07:02 10° WNW 23:11:08 62° SSW 23:12:41 35° SE
STARLINK-1369 4.0 23:11:47 36° SE 23:11:47 36° SE 23:15:00 10° ENE
CENTAUR R/B 4.1 23:07:16 10° NW 23:14:11 31° WSW 23:18:17 21° SSW
STARLINK-1372 3.9 23:15:07 38° SE 23:15:07 38° SE 23:18:30 10° ENE
STARLINK-1231 3.6 23:12:00 10° WNW 23:16:06 58° SSW 23:17:27 37° SSE
Meteor 2-5 Rocket 3.7 23:14:12 31° S 23:17:00 84° E 23:22:40 10° NNE
ATLAS 3B R/B 3.1 23:11:24 10° NW 23:17:49 46° WSW 23:21:09 28° S
STARLINK-1246 3.9 23:14:15 10° WNW 23:18:23 68° NNE 23:22:31 10° E
STARLINK-1378 3.8 23:18:28 41° SE 23:18:28 41° SE 23:22:01 10° ENE
SeaSat 1 3.4 23:15:24 10° NNE 23:20:04 44° NW 23:24:21 12° WSW
Cosmos 1606 Rocket 4.0 23:15:56 10° NNW 23:20:06 47° W 23:21:36 33° SW
SL-14 R/B 3.4 23:19:11 41° SSE 23:20:16 60° E 23:24:04 10° NNE
FALCON 9 DEB 2.9 23:20:07 48° SW 23:20:57 75° SSE 23:24:24 10° ENE
STARLINK-1232 3.7 23:17:01 10° WNW 23:21:04 55° SSW 23:22:15 39° SSE
STARLINK-1379 3.7 23:21:51 43° SSE 23:21:56 43° SSE 23:25:33 10° ENE
Cosmos 1943 Rocket 4.5 23:19:08 10° W 23:23:18 21° NW 23:27:32 10° N
STARLINK-1224 3.9 23:19:13 10° WNW 23:23:22 70° NNE 23:27:30 10° E
STARLINK-1329 3.7 23:23:14 44° SSE 23:23:23 44° SE 23:27:01 10° ENE
Meteor 2-21 4.4 23:20:59 29° S 23:24:21 83° E 23:30:35 10° NNE
STARLINK-29 3.0 23:24:02 24° W 23:25:49 74° NNW 23:29:01 10° ENE
STARLINK-1208 3.7 23:21:59 10° WNW 23:26:01 51° SSW 23:27:00 41° SSE
SL-16 R/B 4.2 23:21:29 10° ESE 23:26:35 28° ENE 23:31:44 10° N
STARLINK-1362 3.6 23:26:40 45° SSE 23:26:56 46° SSE 23:30:37 10° ENE
ATLAS CENTAUR R/B 1.2 23:26:05 10° NW 23:28:15 70° NNE 23:32:21 10° ESE
STARLINK-1225 3.8 23:24:13 10° WNW 23:28:22 73° NNE 23:32:31 10° ESE
STARLINK-1373 3.6 23:30:05 46° S 23:30:30 49° SSE 23:34:13 10° ENE
NOSS 3-4 (A) 4.1 23:25:02 10° WSW 23:30:56 54° NW 23:37:21 10° NE
STARLINK-1271 3.8 23:27:00 10° WNW 23:31:01 48° SSW 23:31:49 41° S
NOSS 3-4 (C) 4.1 23:25:07 10° WSW 23:31:02 55° NW 23:37:28 10° NE
RESURS DK-1 2.4 23:29:48 33° SW 23:31:34 75° WNW 23:35:43 10° NNE
STARLINK-1365 3.6 23:31:12 46° S 23:31:44 51° SSE 23:35:28 10° ENE
STARLINK-1230 3.7 23:29:11 10° WNW 23:33:20 76° NNE 23:37:29 10° ESE
STARLINK-1390 3.5 23:33:34 47° S 23:34:06 51° SSE 23:37:50 10° ENE
Cosmos 1697 Rocket 4.3 23:32:47 16° SE 23:35:25 22° E 23:39:41 10° NE
Cosmos 2084 3.4 23:33:37 32° SW 23:35:40 85° SE 23:40:09 10° NE
STARLINK-1154 3.9 23:32:00 10° WNW 23:35:57 45° SW 23:36:35 41° S
BREEZE-M R/B 3.6 23:31:45 15° SW 23:37:00 46° SSE 23:40:34 10° E
Cosmos 1626 2.0 23:36:00 45° SSW 23:37:03 83° W 23:40:48 10° N
STARLINK-1243 3.7 23:34:11 10° WNW 23:38:21 79° NNE 23:42:30 10° ESE
Cosmos 2227 Rocket 2.4 23:33:25 10° NNW 23:39:07 72° ENE 23:43:29 17° SE
Okean 1-7 Rocket 3.6 23:37:39 35° SSW 23:39:31 76° W 23:44:04 10° N
ATLAS CENTAUR R/B 2.7 23:35:42 11° WSW 23:39:35 37° NW 23:43:23 10° NNE
Cosmos 2369 Rocket 4.4 23:35:26 10° W 23:39:43 22° NW 23:44:02 10° N
STARLINK-1197 4.0 23:36:58 10° WNW 23:40:54 42° SW 23:41:21 40° SSW
CZ-4 R/B 3.8 23:36:57 10° NNE 23:41:46 73° ESE 23:43:50 33° S
STARLINK-1236 3.6 23:39:09 10° WNW 23:43:19 82° NNE 23:47:28 10° ESE
STARLINK-1198 4.0 23:41:58 10° WNW 23:45:51 39° SW 23:46:07 39° SSW
Cosmos 1602 Rocket 4.1 23:47:23 29° SSE 23:49:13 47° E 23:53:23 10° NNE
Landsat 4 4.3 23:46:01 10° N 23:49:36 46° WNW 23:51:00 30° WSW
STARLINK-1199 4.1 23:47:00 10° WNW 23:50:49 36° SW 23:50:55 36° SSW
STARLINK-1269 3.5 23:49:07 10° WNW 23:53:17 89° NNE 23:57:27 10° ESE
Meteor 2-21 Rocket 4.5 23:50:06 27° SSW 23:53:36 79° W 23:59:51 10° N
STARLINK-1210 4.3 23:52:00 10° WNW 23:55:41 34° SW 23:55:41 34° SW
